Home > Weather > Victorville > Past weeks

Flag for U.S.A. Weather for the Past 2 Weeks in Victorville, California, U.S.A.

Now
63 °F

Sunny.


Feels Like: 63 °F
Forecast: 38 / 72 °F
Wind: No wind

Location: George Air Force Base / Victorvi

Current Time: Feb 9, 2016 at 10:48:28 AM

Latest Report: Feb 9, 2016 at 10:15 AM


Visibility: 10 mi

Pressure: 30.37 "Hg (27.54 "Hg at 830m altitude)

Humidity: 24%

Dew point: 25 °F

Location of VictorvilleLocation

Historic Weather in Victorville — Graph

°F

Victorville Temperature Yesterday

Maximum temperature yesterday: 70 °F (at 1:55 PM)
Minimum temperature yesterday: 36 °F (at 6:15 AM)
Average temperature yesterday: 52 °F

High & Low Weather Summary for the Past Weeks

 TemperatureHumidityPressure
High73 °F (Jan 29, 12:55 PM)93% (Jan 31, 4:55 PM)30.48 "Hg (Jan 31, 4:55 PM)
Low23 °F (Feb 2, 2:15 AM)12% (Feb 7, 2:15 PM)29.49 "Hg (Jan 31, 1:55 PM)
Average44 °F46%30.22 "Hg
* Reported Jan 25 9:15 AM — Feb 9 9:35 AM, Victorville, Weather by CustomWeather, © 2016

Note: Actual official high and low records may vary slightly from our data, if they occured in-between our weather recording intervals... More about our weather records

Advertising

Victorville Weather History for the Previous 24 Hours

 ConditionsComfort  
Time TempWeatherWind HumidityBarometerVisibility
9:35 AM
Tue, Feb 9
57 °FSunny.No wind29%30.37 "Hg10 mi
9:15 AM55 °FSunny.No wind31%30.36 "Hg10 mi
8:55 AM54 °FSunny.No wind33%30.36 "Hg10 mi
8:35 AM52 °FSunny.No wind35%30.36 "Hg10 mi
7:35 AM43 °FQuite cool.No wind49%30.35 "Hg10 mi
7:15 AM39 °FChilly.No wind56%30.35 "Hg10 mi
6:15 AM37 °FChilly.No wind56%30.34 "Hg10 mi
5:35 AM37 °FChilly.No wind56%30.34 "Hg10 mi
4:55 AM37 °FClear.No wind52%30.33 "Hg10 mi
4:15 AM37 °FClear.No wind52%30.32 "Hg10 mi
3:55 AM37 °FClear.No wind52%30.32 "Hg10 mi
3:35 AM39 °FClear.No wind48%30.32 "Hg10 mi
3:15 AM39 °FClear.No wind48%30.32 "Hg7 mi
2:15 AM39 °FClear.No wind48%30.33 "Hg10 mi
1:55 AM39 °FClear.No wind48%30.33 "Hg10 mi
1:35 AM39 °FClear.No wind48%30.33 "Hg10 mi
1:15 AM39 °FClear.No wind48%30.33 "Hg10 mi
12:55 AM41 °FClear.No wind45%30.33 "Hg10 mi
11:55 PM
Mon, Feb 8
45 °FClear.No wind37%30.34 "Hg10 mi
11:15 PM43 °FClear.No wind39%30.34 "Hg10 mi
10:55 PM43 °FClear.No wind39%30.35 "Hg10 mi
9:55 PM43 °FClear.No wind39%30.35 "Hg10 mi
9:15 PM46 °FClear.No wind34%30.34 "Hg10 mi
8:55 PM48 °FClear.No wind29%30.33 "Hg10 mi
8:15 PM54 °FClear.No wind26%30.33 "Hg10 mi
7:55 PM57 °FClear.No wind23%30.33 "Hg10 mi
7:15 PM61 °FClear.No wind19%30.33 "Hg10 mi
6:55 PM61 °FClear.No wind19%30.32 "Hg10 mi
6:15 PM57 °FClear.8 mph21%30.32 "Hg10 mi
5:35 PM61 °FClear.8 mph19%30.31 "Hg10 mi
5:15 PM64 °FSunny.10 mph16%30.31 "Hg10 mi
4:55 PM66 °FSunny.12 mph15%30.31 "Hg10 mi
4:15 PM68 °FSunny.14 mph13%30.30 "Hg10 mi
3:35 PM70 °FSunny.13 mph12%30.30 "Hg10 mi
3:15 PM70 °FSunny.15 mph12%30.30 "Hg10 mi
2:55 PM70 °FSunny.18 mph12%30.30 "Hg10 mi
2:15 PM70 °FSunny.15 mph12%30.31 "Hg10 mi
1:55 PM70 °FSunny.12 mph12%30.32 "Hg10 mi
1:15 PM68 °FSunny.15 mph13%30.33 "Hg10 mi
12:55 PM68 °FSunny.17 mph13%30.33 "Hg10 mi
12:35 PM66 °FSunny.16 mph15%30.35 "Hg10 mi
12:15 PM66 °FSunny.16 mph14%30.35 "Hg10 mi
11:55 AM66 °FSunny.16 mph15%30.36 "Hg10 mi
11:35 AM66 °FSunny.15 mph15%30.37 "Hg7 mi
11:15 AM66 °FSunny.15 mph15%30.38 "Hg10 mi
10:55 AM64 °FSunny.15 mph16%30.39 "Hg10 mi
10:35 AM64 °FSunny.16 mph16%30.40 "Hg10 mi
10:15 AM63 °FSunny.14 mph17%30.40 "Hg10 mi
Weather by CustomWeather, © 2016

See weather overviewHow to use our weather pages